This demonstration page uses our WeatherBlox Daily Observations layout. Learn more.

Left ArrowRight Arrow

39.01783, -85.05884

Hourly Observations for June 14, 2017

Temp ( °F °C ) Dew Point ( °F °C ) Humidity (%) Winds ( mph kmh ) Pressure ( in mb ) Visibility ( mi km ) Precip ( " mm )
12:52 am 00:52 Mostly Cloudy 72 22.2 70 21.1 94 94 S 6 9 29.99 1016 10 16 N/A
1:52 am 01:52 Partly Cloudy 71 21.7 69 20.6 94 94 S 5 7 29.98 1015 10 16 N/A
2:52 am 02:52 Mostly Cloudy 71 21.7 68 20 90 90 SSW 8 13 29.97 1015 10 16 N/A
3:30 am 03:30 Cloudy with Thunderstorms 72 22.2 68 20 87 87 NW 15 24 30.00 1016 10 16 N/A
3:33 am 03:33 Cloudy with Thunderstorms 72 22.2 68 20 87 87 NW 13 20 30.00 1016 10 16 N/A
3:52 am 03:52 Cloudy with Thunderstorms 72 22.2 68 20 87 87 NW 7 11 29.99 1016 10 16 N/A
4:52 am 04:52 Cloudy with Thunderstorms 71 21.7 67 19.4 87 87 E 8 13 29.98 1015 10 16 0.07 1.78
5:52 am 05:52 Mostly Cloudy with Light Rain 70 21.1 65 18.3 84 84 SE 8 13 29.98 1015 10 16 N/A
6:52 am 06:52 Mostly Cloudy with Light Rain 69 20.6 67 19.4 93 93 SSE 6 9 29.98 1015 7 11 N/A
7:52 am 07:52 Mostly Cloudy 71 21.7 69 20.6 94 94 SSE 3 6 30.00 1016 9 14 N/A
8:52 am 08:52 Mostly Cloudy 74 23.3 70 21.1 88 88 E 10 17 30.02 1017 10 16 N/A
9:52 am 09:52 Mostly Cloudy 75 23.9 69 20.6 82 82 SSE 10 17 30.03 1017 10 16 N/A
10:52 am 10:52 Mostly Cloudy 77 25 68 20 74 74 E 12 19 30.04 1017 10 16 N/A
11:24 am 11:24 Cloudy 73 22.8 67 19.4 81 81 ESE 10 17 30.03 1017 10 16 N/A
11:52 am 11:52 Cloudy 75 23.9 68 20 79 79 ESE 13 20 30.03 1017 10 16 N/A
12:52 pm 12:52 Cloudy with Nearby Thunderstorms 76 24.4 67 19.4 74 74 ESE 12 19 30.02 1017 10 16 N/A
1:07 pm 13:07 Cloudy 75 23.9 67 19.4 76 76 ESE 16 26 30.03 1017 10 16 N/A
1:30 pm 13:30 Mostly Cloudy 78 25.6 68 20 71 71 ESE 15 24 30.00 1016 10 16 N/A
1:52 pm 13:52 Mostly Cloudy 78 25.6 67 19.4 69 69 ESE 15 24 30.01 1016 10 16 N/A
2:42 pm 14:42 Cloudy with Light Rain 77 25 68 20 74 74 NNE 24 39 30.03 1017 7 11 N/A
2:52 pm 14:52 Cloudy with Strong Thunderstorms 75 23.9 68 20 79 79 NE 17 28 30.02 1017 3 4 0.01 0.25
2:59 pm 14:59 Cloudy with Thunderstorms 76 24.4 71 21.7 85 85 E 14 22 30.00 1016 6 10 N/A
3:15 pm 15:15 Cloudy with Thunderstorms 73 22.8 69 20.6 87 87 S 16 26 30.03 1017 10 16 0.01 0.25
3:38 pm 15:38 Cloudy with Nearby Thunderstorms 71 21.7 69 20.6 94 94 VRB 6 9 30.03 1017 3 4 0.02 0.51
3:41 pm 15:41 Cloudy with Nearby Thunderstorms 71 21.7 69 20.6 94 94 ESE 8 13 30.00 1016 5 8 0.05 1.27
3:49 pm 15:49 Cloudy with Thunderstorms 72 22 70 21 94 94 E 7 11 30.03 1017 5 8 0.10 2.54
3:52 pm 15:52 Cloudy with Thunderstorms 72 22.2 69 20.6 91 91 ESE 8 13 30.02 1017 5 8 0.11 2.79
4:08 pm 16:08 Mostly Cloudy with Light Rain 72 22.2 69 20.6 91 91 ESE 13 20 30.00 1016 9 14 0.01 0.25
4:52 pm 16:52 Mostly Cloudy 73 22.8 70 21.1 90 90 ESE 12 19 29.98 1015 10 16 0.02 0.51
5:52 pm 17:52 Mostly Cloudy 77 25 69 20.6 77 77 SE 9 15 29.96 1014 10 16 N/A
6:52 pm 18:52 Mostly Cloudy 77 25 68 20 74 74 SSE 8 13 29.92 1013 10 16 N/A
7:52 pm 19:52 Mostly Cloudy 77 25 69 20.6 77 77 S 10 17 29.91 1013 10 16 N/A
8:52 pm 20:52 Mostly Cloudy 75 23.9 70 21.1 84 84 SSW 7 11 29.93 1013 10 16 N/A
9:52 pm 21:52 Partly Cloudy 75 23.9 70 21.1 84 84 N N/A 29.95 1014 10 16 N/A
10:19 pm 22:19 Partly Cloudy 74 23.3 70 21.1 88 88 N 17 28 29.97 1015 10 16 N/A
10:52 pm 22:52 Mostly Cloudy 74 23.3 70 21.1 88 88 N 6 9 29.96 1014 10 16 N/A
11:52 pm 23:52 Cloudy 74 23.3 68 20 82 82 N 7 11 29.96 1015 10 16 N/A

Powered by AerisWeather